Wind_Speed
11 7 5 1 4 7 10 14 17 19 22 24 27 29 31 33 34 35 36 37 38 39 39 39 38 37 37 36 36 35 36 36 36 36 36 34 33 31 30 30 30 30 30
14 12 9 6 2 1 5 8 12 15 18 21 24 26 29 32 34 36 37 38 39 40 40 40 40 39 37 37 37 36 36 36 35 35 34 32 31 30 29 29 28 29 28
16 14 12 9 6 3 2 4 6 9 12 15 18 21 24 26 29 31 32 34 35 36 37 38 38 38 38 37 37 37 36 35 34 33 31 31 30 29 28 28 27 26 26
19 17 15 12 9 7 5 3 3 5 7 10 12 14 16 18 21 23 24 26 28 29 30 32 33 34 35 36 37 37 35 34 33 32 31 29 29 28 27 26 25 24 24
20 19 17 15 12 10 8 6 5 4 5 7 9 12 14 16 17 19 21 22 23 24 25 26 27 28 30 32 33 33 32 31 32 31 29 27 26 25 24 23 22 22 20
22 21 19 18 16 14 12 11 10 8 7 7 8 9 11 13 15 17 19 20 21 22 22 23 24 24 25 27 28 29 29 28 28 28 27 25 24 23 22 21 20 19 18
21 21 20 19 18 16 15 14 13 12 11 11 10 10 12 13 15 16 17 18 19 19 20 20 20 21 22 21 20 21 23 24 23 23 22 21 21 20 20 19 18 18 17
21 21 20 20 19 17 16 15 15 15 14 14 14 14 14 14 15 16 17 18 18 18 18 19 19 18 18 17 15 16 18 19 19 20 19 18 18 18 17 17 17 16 15
21 20 20 19 19 18 17 16 16 16 17 17 17 17 16 16 16 15 16 16 17 17 17 18 18 18 17 16 15 14 14 14 16 17 17 16 15 15 14 14 14 13 13
20 20 20 19 19 18 18 17 17 17 18 19 19 19 19 17 16 14 13 14 15 16 17 18 19 19 18 17 16 14 12 13 13 13 14 14 13 13 13 13 12 12 11
19 19 19 19 19 19 19 19 19 19 20 20 20 21 21 20 17 14 11 11 11 13 15 17 17 18 19 17 16 14 11 11 11 11 12 12 12 11 11 11 10 10 9
19 19 19 20 20 20 20 20 20 20 21 21 21 22 23 21 19 14 10 6 6 8 12 15 17 19 19 18 15 12 10 10 11 11 11 11 10 10 10 9 8 8 8
19 19 20 21 21 22 22 21 21 21 22 22 22 23 23 23 20 16 11 6 1 4 9 12 15 17 17 16 14 12 11 11 10 10 10 10 10 10 9 9 8 8 8
19 19 20 21 22 22 22 22 22 22 23 23 23 23 24 24 23 19 15 12 8 7 9 12 15 16 16 16 15 13 12 12 11 10 10 9 10 10 10 9 8 9 9
19 20 20 21 22 22 22 23 23 23 23 24 23 24 25 25 24 23 20 17 15 14 14 14 15 15 15 15 15 15 14 13 12 11 11 11 10 10 10 10 10 10 10
18 20 20 21 22 22 22 23 23 23 23 23 23 23 24 25 25 24 23 21 19 18 17 16 16 16 16 16 17 16 15 13 13 12 12 11 11 11 12 12 11 11 11
17 18 20 21 22 22 22 23 23 23 23 23 23 23 23 24 25 25 24 23 21 20 19 19 18 17 17 17 16 16 15 14 13 13 12 12 12 13 13 13 13 12 11
14 16 18 20 21 21 22 22 23 23 23 23 23 22 22 23 24 25 24 23 22 21 20 19 18 18 17 17 16 16 15 14 14 14 14 14 14 14 14 13 12 11 10
12 14 16 18 19 20 21 21 22 22 22 23 23 22 21 21 22 23 23 23 22 22 21 20 19 18 17 17 16 16 16 15 16 15 15 15 15 14 13 12 11 10 8
10 11 13 14 16 18 19 20 20 20 21 21 22 22 22 21 20 20 21 21 21 21 21 20 19 19 18 17 17 17 17 16 16 16 16 15 14 13 12 11 9 8 7
9 9 10 12 13 14 16 17 18 18 19 19 20 21 21 21 20 19 18 18 18 18 18 18 18 17 17 17 17 16 16 16 16 15 14 13 12 11 10 9 8 6 5
9 9 9 10 10 11 12 14 15 16 16 16 17 18 19 19 20 20 19 17 16 16 15 15 15 15 15 15 15 14 14 13 13 12 12 11 10 9 8 7 6 6 5
9 9 9 9 9 9 9 10 11 12 13 13 13 14 14 15 16 17 17 17 16 15 14 13 13 12 12 12 12 11 11 10 10 10 9 9 8 7 6 5 5 4 3
10 10 10 9 9 8 8 8 8 8 9 10 10 10 10 10 11 12 13 14 14 14 13 12 11 11 10 10 9 9 9 8 8 8 7 6 6 5 4 3 3 2 3
11 11 11 11 10 10 9 9 8 7 7 7 7 7 7 7 6 6 7 8 9 9 10 9 9 9 8 8 7 7 7 6 6 6 5 4 3 2 2 3 4 6 7
13 13 12 12 12 12 12 11 10 9 9 8 7 6 6 5 5 4 4 3 3 3 3 3 4 4 4 4 3 3 3 3 3 3 2 2 3 4 5 7 8 9 11
Wind_Direction
37 34 22 351 238 235 232 231 230 230 232 235 238 240 242 244 246 247 249 251 253 254 256 256 257 257 257 256 256 255 252 251 250 247 246 246 248 251 253 255 257 258 259
37 36 33 33 34 225 230 234 235 236 238 240 242 244 245 247 249 251 252 253 254 255 255 255 255 254 253 252 253 254 252 251 249 248 247 246 249 251 254 256 259 261 259
38 38 36 37 35 21 310 264 254 249 247 248 249 250 251 251 252 253 253 254 254 254 254 252 252 250 249 249 251 251 249 250 249 247 247 247 248 250 252 256 259 260 258
38 37 37 37 37 34 23 353 304 274 264 259 257 256 255 255 254 254 254 254 253 253 252 250 249 247 246 247 247 245 247 246 244 245 246 245 246 248 251 253 255 256 256
38 38 38 38 37 36 34 26 12 344 310 288 277 272 268 265 263 261 258 256 254 252 250 248 246 243 242 241 240 240 242 242 242 243 242 244 245 246 248 249 250 250 249
39 40 39 40 41 42 41 35 28 16 359 335 311 296 286 280 275 270 265 261 256 251 248 247 246 242 239 238 237 237 236 238 237 236 235 237 240 242 243 241 240 242 242
39 39 41 43 44 43 41 37 30 20 9 356 340 322 306 293 286 278 270 264 258 254 248 243 239 235 231 231 230 227 227 226 225 226 227 227 231 232 231 231 234 236 238
41 42 43 43 42 39 36 33 28 21 13 4 352 338 326 312 300 287 273 265 258 253 247 241 234 227 219 213 212 213 215 216 216 217 216 217 219 221 223 226 229 231 237
40 40 40 39 37 35 33 30 25 19 13 5 358 348 337 325 312 296 280 267 258 250 243 237 230 223 214 207 202 197 198 200 200 202 203 203 206 208 212 217 222 229 235
35 35 35 35 32 30 27 24 20 14 9 6 1 356 349 340 328 311 290 273 259 245 236 230 225 219 210 203 200 196 191 185 182 183 185 186 189 197 204 211 218 225 231
31 31 31 29 27 26 24 20 17 13 10 7 5 2 358 351 342 329 309 282 259 240 227 221 215 210 207 201 202 200 194 186 179 179 181 183 188 196 201 205 211 219 227
29 28 27 26 25 24 21 19 17 15 12 11 10 8 7 3 358 353 343 311 259 231 216 211 206 202 201 200 196 191 184 177 175 177 179 181 185 191 195 197 203 211 215
29 28 27 26 25 24 22 20 19 18 17 15 16 15 15 15 15 18 23 27 55 182 186 188 187 189 191 193 191 185 180 177 175 174 178 183 186 187 187 189 195 199 199
29 28 27 26 26 25 24 23 22 22 22 22 23 23 23 25 28 33 41 51 73 113 142 155 164 170 176 177 175 174 172 169 167 166 170 176 180 179 178 179 180 178 174
28 28 27 26 27 27 26 25 25 26 26 27 29 31 32 34 38 42 49 61 78 96 112 127 141 150 158 164 166 165 163 163 164 164 164 165 167 169 170 167 163 161 159
26 26 26 26 26 27 28 28 29 29 30 32 34 37 38 40 45 50 56 66 78 89 99 111 123 133 140 147 151 155 157 159 159 159 158 160 161 160 158 156 154 153 151
23 24 25 25 26 27 29 31 32 33 34 35 37 41 44 46 50 55 60 67 76 86 94 102 111 118 126 131 136 142 146 149 150 151 152 151 151 150 149 148 146 146 146
18 20 22 24 25 27 29 32 34 36 38 39 41 44 48 51 54 58 63 68 76 84 91 98 105 112 119 125 130 136 141 143 144 146 145 145 144 144 143 143 143 142 141
9 14 18 22 24 26 28 31 33 36 39 42 43 46 50 54 58 61 65 69 75 81 87 93 100 108 113 119 124 129 133 136 138 139 140 140 141 142 142 141 141 141 138
355 2 9 15 20 24 27 30 32 35 39 42 45 47 50 54 59 64 68 71 75 80 85 91 96 101 107 112 117 122 127 130 133 135 137 138 139 140 141 140 140 138 133
337 345 354 3 11 18 23 27 31 34 37 41 44 48 50 53 58 63 69 73 76 80 84 88 93 98 103 109 114 119 123 126 128 131 133 135 137 139 139 138 137 137 135
323 329 337 345 355 5 14 21 26 30 35 39 43 47 51 54 57 61 66 71 76 81 85 89 93 97 100 105 110 115 120 123 126 129 132 135 137 139 138 138 139 141 142
315 318 323 331 338 345 354 5 15 22 28 33 38 42 46 51 55 58 62 66 72 78 84 89 93 98 102 106 111 115 119 123 128 131 134 136 138 141 143 147 152 160 175
304 308 311 314 320 327 333 340 350 1 12 21 28 33 37 42 49 54 59 63 67 72 77 83 90 96 102 107 113 117 121 126 130 134 138 142 148 154 162 174 197 233 260
292 296 300 302 303 306 310 315 320 326 335 348 1 12 19 24 29 37 46 55 62 68 73 78 84 90 96 102 110 117 124 130 136 143 149 157 171 193 223 249 266 276 283
284 287 289 291 293 294 295 297 299 301 304 309 314 320 330 340 347 348 350 355 10 34 59 74 84 92 100 109 119 129 139 151 164 182 203 230 253 267 275 280 283 286 288
Height
5775 5773 5771 5770 5770 5771 5772 5774 5776 5778 5781 5783 5785 5788 5790 5792 5794 5795 5797 5799 5801 5802 5804 5805 5807 5808 5809 5811 5812 5813 5815 5817 5818 5821 5823 5826 5828 5830 5831 5833 5835 5836 5837
5779 5776 5774 5773 5772 5772 5772 5773 5774 5775 5777 5778 5780 5781 5782 5784 5785 5786 5787 5789 5790 5791 5793 5794 5796 5798 5799 5801 5803 5804 5806 5808 5810 5812 5815 5817 5820 5822 5824 5825 5827 5828 5829
5783 5780 5777 5776 5775 5774 5773 5773 5773 5773 5774 5774 5775 5776 5776 5777 5777 5778 5778 5779 5780 5781 5782 5784 5785 5787 5789 5791 5793 5795 5797 5799 5802 5804 5806 5809 5811 5814 5816 5818 5820 5821 5822
5787 5783 5781 5778 5777 5775 5774 5774 5773 5772 5772 5772 5772 5771 5771 5771 5771 5771 5771 5771 5771 5772 5773 5774 5775 5777 5780 5782 5784 5786 5788 5791 5794 5796 5799 5801 5804 5806 5809 5811 5813 5815 5816
5790 5787 5784 5781 5779 5777 5775 5774 5773 5772 5770 5769 5769 5768 5767 5766 5765 5765 5764 5764 5764 5764 5765 5766 5767 5769 5771 5773 5775 5777 5780 5783 5786 5788 5791 5794 5797 5800 5803 5804 5807 5808 5810
5794 5790 5787 5784 5781 5779 5777 5775 5773 5771 5769 5767 5766 5764 5763 5761 5760 5759 5758 5757 5757 5757 5758 5759 5760 5762 5764 5766 5768 5770 5773 5776 5779 5782 5785 5788 5791 5794 5796 5799 5801 5804 5805
5797 5794 5790 5787 5784 5781 5779 5776 5773 5771 5768 5766 5763 5761 5758 5756 5754 5753 5751 5751 5751 5751 5752 5753 5754 5756 5758 5760 5762 5764 5766 5769 5772 5776 5779 5782 5785 5788 5791 5794 5797 5799 5801
5801 5797 5794 5790 5787 5784 5781 5778 5775 5771 5768 5765 5761 5758 5754 5751 5748 5746 5745 5744 5744 5745 5746 5747 5749 5751 5753 5755 5757 5760 5762 5764 5767 5771 5774 5777 5781 5784 5788 5790 5792 5795 5797
5805 5801 5797 5793 5790 5786 5783 5779 5776 5772 5768 5764 5759 5755 5750 5746 5742 5740 5738 5737 5738 5738 5740 5741 5744 5746 5749 5752 5754 5756 5758 5761 5764 5767 5770 5774 5777 5781 5784 5787 5790 5792 5794
5808 5804 5800 5796 5793 5789 5785 5781 5777 5772 5768 5763 5758 5753 5747 5742 5738 5734 5732 5731 5731 5732 5734 5736 5739 5742 5745 5749 5752 5754 5756 5759 5762 5765 5768 5772 5775 5779 5782 5785 5787 5789 5791
5811 5807 5803 5799 5795 5791 5786 5782 5778 5773 5768 5763 5757 5751 5745 5739 5733 5729 5726 5725 5725 5726 5728 5731 5734 5738 5742 5746 5749 5752 5755 5758 5761 5764 5768 5771 5774 5777 5780 5782 5784 5786 5788
5813 5809 5806 5801 5797 5793 5788 5784 5779 5774 5769 5763 5757 5751 5744 5738 5731 5726 5722 5720 5720 5721 5723 5727 5730 5735 5739 5744 5748 5751 5755 5758 5761 5764 5767 5770 5773 5776 5778 5780 5782 5784 5786
5816 5812 5808 5804 5799 5795 5790 5785 5780 5775 5770 5764 5758 5752 5746 5739 5732 5726 5722 5720 5718 5719 5721 5724 5728 5734 5738 5743 5747 5752 5755 5758 5761 5764 5767 5769 5772 5774 5777 5779 5780 5782 5784
5819 5815 5811 5806 5802 5797 5792 5788 5783 5778 5772 5767 5761 5755 5749 5742 5735 5730 5725 5722 5720 5720 5722 5725 5729 5734 5739 5744 5748 5752 5755 5758 5761 5764 5767 5769 5772 5774 5776 5778 5780 5782 5783
5822 5818 5814 5809 5805 5800 5795 5791 5786 5781 5775 5770 5765 5759 5753 5747 5741 5735 5731 5727 5726 5726 5727 5729 5733 5737 5741 5745 5749 5753 5756 5759 5762 5765 5767 5770 5772 5774 5776 5778 5780 5782 5784
5824 5820 5817 5812 5808 5803 5799 5794 5789 5784 5779 5774 5769 5764 5759 5753 5748 5743 5739 5735 5734 5733 5734 5736 5738 5741 5744 5748 5751 5755 5758 5761 5764 5766 5768 5771 5773 5775 5777 5779 5781 5783 5785
5826 5823 5819 5815 5811 5807 5802 5798 5793 5788 5783 5779 5774 5769 5765 5760 5756 5751 5748 5745 5743 5742 5742 5743 5744 5746 5749 5752 5755 5758 5760 5763 5766 5768 5770 5772 5774 5776 5778 5781 5783 5784 5786
5828 5825 5822 5818 5814 5810 5806 5802 5797 5793 5788 5784 5779 5775 5771 5767 5763 5759 5756 5754 5752 5751 5750 5750 5751 5753 5754 5756 5759 5761 5764 5766 5768 5771 5773 5775 5777 5779 5781 5783 5785 5786 5788
5829 5826 5823 5820 5817 5813 5809 5805 5801 5797 5793 5789 5785 5781 5777 5774 5771 5768 5765 5763 5760 5759 5758 5758 5758 5759 5760 5762 5764 5765 5767 5769 5771 5774 5776 5778 5780 5782 5783 5785 5786 5788 5789
5829 5827 5824 5822 5819 5816 5812 5809 5805 5802 5798 5794 5790 5787 5783 5780 5777 5775 5772 5770 5769 5767 5766 5766 5766 5766 5767 5768 5769 5770 5772 5774 5775 5777 5779 5781 5782 5784 5786 5787 5788 5789 5790
5829 5827 5825 5822 5820 5817 5815 5812 5808 5805 5802 5799 5796 5792 5789 5786 5783 5781 5779 5777 5776 5775 5774 5773 5773 5773 5773 5774 5774 5775 5777 5778 5780 5781 5782 5784 5785 5786 5787 5788 5789 5790 5790
5827 5826 5824 5822 5820 5818 5816 5813 5811 5808 5806 5803 5800 5798 5795 5792 5789 5787 5785 5783 5782 5781 5780 5779 5779 5779 5779 5779 5780 5781 5781 5782 5783 5784 5785 5786 5787 5788 5789 5789 5790 5790 5791
5825 5824 5822 5821 5819 5818 5816 5814 5812 5810 5808 5806 5804 5801 5799 5797 5795 5793 5791 5789 5787 5786 5785 5784 5784 5784 5784 5784 5784 5785 5785 5786 5786 5787 5787 5788 5789 5789 5790 5790 5790 5790 5790
5822 5821 5820 5819 5818 5816 5815 5813 5812 5810 5809 5807 5805 5803 5802 5800 5799 5797 5795 5794 5792 5791 5789 5789 5788 5788 5787 5787 5787 5787 5787 5788 5788 5789 5789 5789 5790 5790 5790 5790 5789 5789 5788
5818 5818 5817 5816 5815 5814 5813 5812 5810 5809 5808 5807 5805 5804 5803 5802 5801 5799 5798 5797 5796 5794 5793 5792 5791 5791 5790 5790 5790 5790 5789 5789 5789 5789 5789 5789 5789 5789 5789 5788 5788 5787 5786
5814 5813 5813 5812 5812 5811 5810 5809 5808 5807 5806 5805 5804 5803 5802 5801 5800 5800 5799 5798 5797 5796 5795 5794 5793 5793 5792 5792 5791 5791 5790 5790 5790 5789 5789 5789 5788 5788 5787 5786 5785 5784 5783